Flag for Germany

Past Weather in Landsberg am Lech, Bavaria, Germany — Yesterday and Last 2 Weeks

Now
59 °F

Cool.


Feels Like: 60 °F
Forecast: 84 / 58 °F
Wind: 3 mph from North

Location: Lechfeld

Current Time: Aug 10, 2020 at 1:54:57 am

Latest Report: Aug 10, 2020 at 12:20 am


Visibility: N/A

Pressure: 30.07 "Hg (28.03 "Hg at 593m altitude)

Humidity: 77%

Dew Point: 52 °F

Location of Landsberg am LechLocation

Past Weather in Landsberg am Lech — Graph

°F

Landsberg am Lech Temperature Yesterday

Maximum temperature yesterday: 84 °F (at 3:20 pm)
Minimum temperature yesterday: 57 °F (at 5:20 am)
Average temperature yesterday: 71 °F

High & Low Weather Summary for the Past Weeks

 TemperatureHumidityPressure
High90 °F (Jul 31, 5:20 pm)100% (Jul 27, 1:20 am)30.18 "Hg (Jul 27, 1:20 am)
Low46 °F (Aug 5, 5:35 am)29% (Aug 1, 3:20 pm)29.83 "Hg (Aug 3, 3:20 pm)
Average67 °F72%30.05 "Hg
* Reported Jul 26 12:20 am — Aug 10 12:20 am, Landsberg am Lech. Weather by CustomWeather, © 2020

Note: Actual official high and low records may vary slightly from our data, if they occured in-between our weather recording intervals... More about our weather records

Landsberg am Lech Weather History for the Previous 24 Hours

Scroll right to see more
 ConditionsComfort  
Time TempWeatherWind HumidityBarometerVisibility
12:20 am
Mon, Aug 10
59 °FCool.3 mph77%30.07 "HgN/A
11:20 pm
Sun, Aug 9
64 °FMild.1 mph64%30.07 "HgN/A
10:20 pm68 °FMild.1 mph56%30.07 "HgN/A
9:20 pm70 °FMild.3 mph53%30.04 "HgN/A
8:20 pm72 °FPassing clouds.6 mph57%30.04 "HgN/A
7:20 pm79 °FPassing clouds.6 mph42%30.07 "HgN/A
6:20 pm82 °FPassing clouds.7 mph40%30.07 "HgN/A
5:20 pm84 °FPassing clouds.7 mph37%30.07 "HgN/A
4:20 pm84 °FPassing clouds.8 mph35%30.07 "HgN/A
3:20 pm84 °FPassing clouds.7 mph37%30.09 "HgN/A
2:20 pm82 °FPassing clouds.9 mph42%30.09 "HgN/A
1:20 pm82 °FPassing clouds.10 mph42%30.09 "HgN/A
12:20 pm81 °FWarm.8 mph48%30.12 "HgN/A
11:20 am79 °FWarm.5 mph51%30.15 "Hg4 mi
10:20 am77 °FWarm.1 mph57%30.15 "Hg5 mi
9:20 am70 °FMild.3 mph73%30.15 "Hg5 mi
8:20 am66 °FMild.3 mph78%30.15 "Hg5 mi
7:20 am61 °FCool.5 mph88%30.15 "Hg4 mi
6:20 am57 °FCool.2 mph94%30.12 "Hg4 mi
5:20 am57 °FCool.3 mph94%30.12 "Hg0 mi
4:20 am59 °FCool.5 mph94%30.12 "Hg5 mi
3:20 am59 °FCool.3 mph94%30.12 "Hg1 mi
2:20 am63 °FMild.5 mph83%30.12 "Hg4 mi
1:20 am61 °FCool.3 mph88%30.12 "Hg4 mi
Weather by CustomWeather, © 2020

See weather overview